Location: Cartignies
(50.0929°N, 3.8447°E)
Time: 13:47:24
(UTC+00:00)

AQUARIUS - Pass Details

Date: 12 January 2026
Orbit: 633 x 636 km, 98.0° (Epoch: 16 February)

Event Time Altitude Azimuth Distance (km) Brightness Sun altitude
Rises 16:52:16 0° 148° (SSE) 2,926 7.5 -7.2°
Reaches altitude 10° 16:54:31 10° 142° (SE) 2,022 6.6 -7.5°
Maximum altitude 16:58:44 47° 69° (ENE) 849 4.4 -8.2°
Drops below altitude 10° 17:02:59 10° 356° (N) 2,036 6.5 -8.8°
Sets 17:05:15 0° 351° (N) 2,949 7.4 -9.1°
